{"data":{"norad_id":65159,"epoch":"2026-05-25T02:55:41.345184Z","epoch_age_seconds":67705,"freshness":"FRESH","line1":"1 65159U 25172A   26145.12200631  .00000027  00000+0  31989-4 0  9998","line2":"2 65159  98.6655 205.2692 0001087  83.1265 277.0036 14.21505319 40510","mean_motion":14.21505319,"eccentricity":0.0001087,"inclination_deg":98.6655,"raan_deg":205.2692,"arg_perigee_deg":83.1265,"mean_anomaly_deg":277.0036,"bstar":3.1989e-5,"rev_number":4051,"period_min":101.30106308804,"perigee_km":819.48394993039,"apogee_km":821.04888283311,"semimajor_km":7198.4034163817,"source":"CELESTRAK","updated_at":"2026-05-25T13:38:12.262527Z"}}